Location: Brachbach
(49.1847°N, 9.7240°E)
Time: 04:47:07
(UTC+00:00)

Cosmos 2219 Rocket - Pass Details

Date: 19 August 2024
Orbit: 826 x 846 km, 71.0° (Epoch: 16 September)

Event Time Altitude Azimuth Distance (km) Brightness Sun altitude
Exits shadow 23:07:57 84° 24° (NNE) 857 2.1 -28.3°
Drops below altitude 10° 23:13:29 10° 29° (NNE) 2,480 5.3 -28.4°
Sets 23:15:57 0° 29° (NNE) 3,419 6.2 -28.4°
